KT2UU-13 Weather Reports


time (UTC)temp
C
wind
direction
speed
KPH
gust
KPH
rain 1hr
cm
rain 24hr
cm
rain mn
cm
humidity
%
barometer
mb
20260502203439 19 333 1.6 14.5 0.00 0.00 0.00 36 1015.2
20260502202936 19 249 6.4 9.7 0.00 0.00 0.00 37 1015.0
20260502202433 18 211 6.4 17.7 0.00 0.00 0.00 38 1015.1
20260502201931 18 224 1.6 3.2 0.00 0.00 0.00 37 1015.3
20260502201427 18 249 6.4 14.5 0.00 0.00 0.00 37 1015.0
20260502200924 18 271 6.4 12.9 0.00 0.00 0.00 37 1014.9
20260502200419 18 353 1.6 17.7 0.00 0.00 0.00 38 1015.0
20260502195917 18 212 6.4 9.7 0.00 0.00 0.00 37 1015.1
20260502195414 18 242 1.6 22.5 0.00 0.00 0.00 37 1014.9
20260502194910 18 333 0.0 14.5 0.00 0.00 0.00 36 1015.4
20260502194407 17 214 1.6 9.7 0.00 0.00 0.00 35 1015.1
20260502193903 18 192 14.5 17.7 0.00 0.00 0.00 34 1015.5
20260502193400 18 237 4.8 9.7 0.00 0.00 0.00 37 1014.8
20260502192855 18 148 1.6 12.9 0.00 0.00 0.00 35 1015.0
20260502192353 18 199 4.8 20.9 0.00 0.00 0.00 33 1015.0
20260502191850 18 131 4.8 12.9 0.00 0.00 0.00 37 1015.1
20260502191348 18 150 6.4 20.9 0.00 0.00 0.00 34 1015.1
20260502190845 18 277 9.7 12.9 0.00 0.00 0.00 35 1015.0
20260502190342 18 256 3.2 6.4 0.00 0.00 0.00 39 1015.0
20260502185838 18 228 9.7 14.5 0.00 0.00 0.00 38 1014.8
20260502185334 18 299 4.8 14.5 0.00 0.00 0.00 37 1015.2
20260502184831 18 250 4.8 9.7 0.00 0.00 0.00 36 1015.0
20260502184326 18 223 3.2 14.5 0.00 0.00 0.00 37 1014.8
20260502183824 18 345 4.8 14.5 0.00 0.00 0.00 38 1015.1
20260502183320 18 5 3.2 6.4 0.00 0.00 0.00 35 1014.8
20260502182815 18 215 3.2 12.9 0.00 0.00 0.00 38 1015.1
20260502182310 18 198 1.6 11.3 0.00 0.00 0.00 42 1014.9
20260502181807 18 344 3.2 12.9 0.00 0.00 0.00 38 1015.0
20260502181306 18 245 9.7 12.9 0.00 0.00 0.00 41 1015.0
20260502180803 17 277 4.8 11.3 0.00 0.00 0.00 41 1015.2
20260502180300 17 231 6.4 12.9 0.00 0.00 0.00 39 1015.1
20260502170214 16 255 9.7 16.1 0.00 0.00 0.00 50 1015.2
20260502164201 16 180 4.8 22.5 0.00 0.00 0.00 53 1015.5
20260502163656 16 272 12.9 17.7 0.00 0.00 0.00 51 1015.3
20260502163153 16 285 6.4 17.7 0.00 0.00 0.00 50 1015.5
20260502162649 16 214 4.8 20.9 0.00 0.00 0.00 51 1015.3
20260502162147 16 261 0.0 12.9 0.00 0.00 0.00 51 1015.3
20260502161644 16 342 3.2 11.3 0.00 0.00 0.00 53 1015.5
20260502161140 16 240 4.8 11.3 0.00 0.00 0.00 50 1015.4
20260502160638 16 277 12.9 20.9 0.00 0.00 0.00 49 1015.4
20260502160137 16 213 6.4 14.5 0.00 0.00 0.00 49 1015.5
20260502152051 15 213 3.2 12.9 0.00 0.00 0.00 55 1015.2
20260502151549 15 215 4.8 9.7 0.00 0.00 0.00 55 1015.4
20260502151046 15 1 3.2 12.9 0.00 0.00 0.00 58 1015.2
20260502150544 15 274 4.8 12.9 0.00 0.00 0.00 57 1015.1
20260502130428 12 224 6.4 9.7 0.00 0.00 0.00 69 1014.4
20260502123410 11 321 0.0 1.6 0.00 0.00 0.00 69 1014.4
20260502122908 11 333 3.2 4.8 0.00 0.00 0.00 69 1014.2
20260502122404 11 256 0.0 4.8 0.00 0.00 0.00 69 1014.3
20260502121902 11 192 0.0 9.7 0.00 0.00 0.00 68 1014.4
20260502121359 11 65 0.0 1.6 0.00 0.00 0.00 69 1014.3
20260502120856 11 316 0.0 6.4 0.00 0.00 0.00 68 1014.4
20260502120352 11 299 1.6 9.7 0.00 0.00 0.00 68 1014.1
20260502115850 11 222 1.6 11.3 0.00 0.00 0.00 68 1014.2
20260502115347 11 246 4.8 6.4 0.00 0.00 0.00 68 1013.7
20260502114843 11 249 4.8 6.4 0.00 0.00 0.00 67 1013.8
20260502114340 11 202 1.6 3.2 0.00 0.00 0.00 67 1014.1
20260502113837 11 22 1.6 9.7 0.00 0.00 0.00 67 1014.1
20260502113334 11 336 1.6 3.2 0.00 0.00 0.00 67 1014.4
20260502112833 11 282 3.2 6.4 0.00 0.00 0.00 66 1014.3
20260502112330 11 265 6.4 9.7 0.00 0.00 0.00 65 1014.2
20260502111827 11 242 4.8 14.5 0.00 0.00 0.00 66 1014.1
20260502111325 11 246 3.2 6.4 0.00 0.00 0.00 66 1014.1
20260502110822 11 305 0.0 4.8 0.00 0.00 0.00 66 1014.1
20260502110320 11 244 1.6 4.8 0.00 0.00 0.00 65 1014.1
20260502105817 11 147 0.0 9.7 0.00 0.00 0.00 65 1014.0
20260502105314 11 251 1.6 4.8 0.00 0.00 0.00 65 1014.0
20260502104812 11 239 3.2 6.4 0.00 0.00 0.00 65 1013.8
20260502104308 11 239 1.6 3.2 0.00 0.00 0.00 64 1013.5
20260502103806 11 236 4.8 6.4 0.00 0.00 0.00 64 1013.4
20260502103303 11 244 4.8 6.4 0.00 0.00 0.00 63 1013.5
20260502102800 11 214 4.8 12.9 0.00 0.00 0.00 63 1013.5
20260502102256 12 201 0.0 12.9 0.00 0.00 0.00 62 1013.8
20260502101755 12 257 1.6 3.2 0.00 0.00 0.00 63 1013.7
20260502101252 12 222 1.6 4.8 0.00 0.00 0.00 63 1013.8
20260502100750 12 306 3.2 4.8 0.00 0.00 0.00 62 1013.7
20260502100249 12 304 0.0 6.4 0.00 0.00 0.00 62 1013.4
20260502091223 12 184 4.8 6.4 0.00 0.00 0.00 59 1013.5
20260502090720 12 315 1.6 11.3 0.00 0.00 0.00 58 1013.6
20260502090217 12 205 3.2 4.8 0.00 0.00 0.00 58 1013.6
20260502071114 13 221 8.0 16.1 0.00 0.00 0.00 57 1013.9
20260502070611 13 189 4.8 11.3 0.00 0.00 0.00 58 1014.0
20260502070109 13 308 9.7 14.5 0.00 0.00 0.00 58 1014.4
20260502065607 13 211 4.8 14.5 0.00 0.00 0.00 58 1014.4
20260502065104 13 248 3.2 6.4 0.00 0.00 0.00 60 1014.4
20260502064603 13 271 6.4 11.3 0.00 0.00 0.00 60 1014.5
20260502064100 13 267 1.6 11.3 0.00 0.00 0.00 61 1014.5
20260502063557 14 305 3.2 6.4 0.00 0.00 0.00 61 1014.7
20260502063055 14 255 3.2 6.4 0.00 0.00 0.00 62 1014.4
20260502062552 14 238 4.8 9.7 0.00 0.00 0.00 62 1014.4
20260502062050 14 320 3.2 6.4 0.00 0.00 0.00 63 1014.4
20260502061548 14 339 0.0 6.4 0.00 0.00 0.00 63 1014.6
20260502061045 14 189 1.6 9.7 0.00 0.00 0.00 63 1014.7
20260502060540 14 319 3.2 9.7 0.00 0.00 0.00 65 1014.5
20260502060037 14 219 6.4 14.5 0.00 0.00 0.00 65 1014.7
20260502055534 14 259 1.6 11.3 0.00 0.00 0.00 66 1014.9
20260502055033 14 233 0.0 4.8 0.00 0.00 0.00 67 1014.7
20260502054531 14 189 3.2 9.7 0.00 0.00 0.00 67 1014.7
20260502054028 14 269 3.2 4.8 0.00 0.00 0.00 68 1014.5
20260502053525 14 246 3.2 9.7 0.00 0.00 0.00 68 1014.6
20260502053023 14 357 0.0 9.7 0.00 0.00 0.00 69 1014.3
20260502052521 14 144 0.0 14.5 0.00 0.00 0.00 69 1014.4
20260502052019 14 124 3.2 9.7 0.00 0.00 0.00 71 1014.4
20260502051516 14 316 3.2 14.5 0.00 0.00 0.00 70 1014.5
20260502051014 14 259 3.2 4.8 0.00 0.00 0.00 73 1014.6
20260502050510 14 131 4.8 12.9 0.00 0.00 0.00 74 1014.6
20260502050007 14 278 3.2 9.7 0.00 0.00 0.00 74 1014.4
20260502045504 14 248 3.2 3.2 0.00 0.00 0.00 76 1014.3
20260502045001 14 33 1.6 3.2 0.00 0.00 0.00 77 1014.3
20260502044457 14 244 4.8 11.3 0.00 0.00 0.00 77 1014.5
20260502043954 14 235 1.6 1.6 0.00 0.00 0.00 79 1014.6
20260502043451 14 276 0.0 4.8 0.00 0.00 0.00 81 1014.6
20260502042950 14 206 6.4 6.4 0.00 0.00 0.00 81 1014.6
20260502042448 14 228 0.0 3.2 0.00 0.00 0.00 81 1014.6
20260502041945 14 260 1.6 3.2 0.00 0.00 0.00 80 1014.8
20260502041443 14 241 3.2 3.2 0.00 0.00 0.00 80 1014.8
20260502040939 14 273 0.0 3.2 0.00 0.00 0.00 81 1014.8
20260502040436 13 277 3.2 4.8 0.00 0.00 0.00 84 1014.9
20260502035932 13 238 1.6 3.2 0.00 0.00 0.00 88 1015.0
20260502035429 13 220 0.0 0.0 0.00 0.00 0.00 90 1014.9
20260502034927 13 220 0.0 0.0 0.00 0.00 0.00 90 1015.0
20260502034425 13 220 0.0 0.0 0.00 0.00 0.00 90 1015.0
20260502033923 13 220 0.0 0.0 0.00 0.00 0.00 89 1015.0
20260502033420 13 220 0.0 0.0 0.00 0.00 0.00 89 1015.0
20260502032917 13 220 0.0 0.0 0.00 0.00 0.00 89 1015.2
20260502032413 13 220 0.0 0.0 0.00 0.00 0.00 89 1015.1
20260502031910 13 220 0.0 0.0 0.00 0.00 0.00 89 1015.2
20260502031409 13 220 0.0 0.0 0.00 0.00 0.00 89 1015.1
20260502030907 13 220 0.0 0.0 0.00 0.00 0.00 89 1015.2
20260502030405 13 220 0.0 0.0 0.00 0.00 0.00 89 1015.4
20260502025902 13 220 0.0 0.0 0.00 0.00 0.00 89 1015.2
20260502025359 13 220 0.0 0.0 0.00 0.00 0.00 89 1015.1
20260502024857 13 220 0.0 0.0 0.00 0.00 0.00 89 1015.1
20260502024355 13 220 0.0 0.0 0.00 0.00 0.00 88 1015.1
20260502023853 13 220 0.0 0.0 0.00 0.00 0.00 87 1015.2
20260502023350 13 220 0.0 0.0 0.00 0.00 0.00 87 1014.9
20260502022848 13 201 0.0 0.0 0.00 0.00 0.00 88 1015.1
20260502022344 13 220 0.0 0.0 0.00 0.00 0.00 87 1014.9
20260502021841 13 201 0.0 0.0 0.00 0.00 0.00 87 1015.0
20260502021338 14 220 0.0 0.0 0.00 0.00 0.00 87 1015.2
20260502020835 14 220 0.0 0.0 0.00 0.00 0.00 87 1015.1
20260502020333 14 220 0.0 0.0 0.00 0.00 0.00 87 1015.1
20260502015830 14 220 0.0 0.0 0.00 0.00 0.00 87 1014.8
20260502015327 14 220 0.0 0.0 0.00 0.00 0.00 86 1014.9
20260502014824 14 220 0.0 0.0 0.00 0.00 0.00 86 1014.6
20260502014321 14 220 0.0 0.0 0.00 0.00 0.00 85 1014.9
20260502013817 14 220 0.0 0.0 0.00 0.00 0.00 83 1014.8
20260502013313 14 220 0.0 0.0 0.00 0.00 0.00 83 1014.8
20260502012809 14 220 0.0 0.0 0.00 0.00 0.00 83 1014.7
20260502012307 14 220 0.0 0.0 0.00 0.00 0.00 84 1014.7
20260502011804 14 220 0.0 0.0 0.00 0.00 0.00 84 1014.4
20260502011300 14 220 0.0 0.0 0.00 0.00 0.00 85 1014.5
20260502010758 14 220 0.0 0.0 0.00 0.00 0.00 85 1014.3
20260502010254 15 220 0.0 0.0 0.00 0.00 0.00 83 1014.5
20260502005751 15 220 0.0 0.0 0.00 0.00 0.00 83 1014.6
20260502005249 15 201 0.0 0.0 0.00 0.00 0.00 81 1014.3
20260502004745 15 220 0.0 0.0 0.00 0.00 0.00 79 1014.0
20260502004242 15 220 0.0 0.0 0.00 0.00 0.00 79 1014.1
20260502003740 15 220 0.0 0.0 0.00 0.00 0.00 79 1014.1
20260502003237 15 220 0.0 0.0 0.00 0.00 0.00 80 1014.1
20260502002732 15 220 0.0 0.0 0.00 0.00 0.00 78 1014.2
20260502002230 15 220 0.0 0.0 0.00 0.00 0.00 77 1014.2
20260502001727 15 220 0.0 0.0 0.00 0.00 0.00 76 1014.2
20260502001225 16 220 0.0 0.0 0.00 0.00 0.00 76 1014.0
20260502000723 16 220 0.0 0.0 0.00 0.00 0.00 76 1013.9
20260502000220 16 220 0.0 0.0 0.00 0.00 0.00 76 1014.1
20260501235716 16 202 0.0 0.0 0.00 0.00 0.00 75 1014.1
20260501235212 16 220 0.0 0.0 0.00 0.00 0.00 74 1013.9
20260501234708 16 220 0.0 0.0 0.00 0.00 0.00 72 1014.1
20260501234205 17 220 0.0 0.0 0.00 0.00 0.00 69 1013.8
20260501233703 17 220 0.0 0.0 0.00 0.00 0.00 70 1014.0
20260501233200 17 220 0.0 0.0 0.00 0.00 0.00 69 1013.9
20260501232656 17 221 0.0 0.0 0.00 0.00 0.00 68 1013.9
20260501232154 17 221 0.0 0.0 0.00 0.00 0.00 68 1014.0
20260501231651 17 221 0.0 0.0 0.00 0.00 0.00 64 1013.9
20260501231149 17 221 0.0 0.0 0.00 0.00 0.00 60 1013.9
20260501230647 18 202 0.0 0.0 0.00 0.00 0.00 66 1013.7
20260501230145 17 202 0.0 0.0 0.00 0.00 0.00 59 1013.7
20260501225643 18 221 0.0 1.6 0.00 0.00 0.00 60 1013.9
20260501225139 18 221 1.6 1.6 0.00 0.00 0.00 55 1013.9
20260501224636 18 221 0.0 1.6 0.00 0.00 0.00 55 1013.9
20260501224133 18 221 0.0 0.0 0.00 0.00 0.00 59 1013.6
20260501223629 19 238 1.6 3.2 0.00 0.00 0.00 54 1013.4
20260501223126 19 220 0.0 1.6 0.00 0.00 0.00 53 1013.3
20260501222622 19 182 1.6 3.2 0.00 0.00 0.00 52 1013.4
20260501222119 20 229 0.0 3.2 0.00 0.00 0.00 54 1013.5
20260501221616 20 215 3.2 4.8 0.00 0.00 0.00 54 1013.4
20260501221113 20 300 0.0 1.6 0.00 0.00 0.00 54 1013.2
20260501220611 20 223 0.0 6.4 0.00 0.00 0.00 55 1013.3
20260501220108 20 245 0.0 3.2 0.00 0.00 0.00 57 1013.4
20260501215604 20 229 4.8 4.8 0.00 0.00 0.00 56 1013.5
20260501215100 19 200 1.6 3.2 0.00 0.00 0.00 59 1013.8
20260501214555 19 217 0.0 1.6 0.00 0.00 0.00 60 1013.6
20260501214050 19 206 0.0 4.8 0.00 0.00 0.00 58 1013.9
20260501213548 19 220 1.6 4.8 0.00 0.00 0.00 56 1013.9
20260501213044 19 244 1.6 3.2 0.00 0.00 0.00 56 1014.2
20260501212540 19 251 3.2 4.8 0.00 0.00 0.00 56 1014.2
20260501212037 19 261 3.2 4.8 0.00 0.00 0.00 56 1014.1
20260501211534 19 241 1.6 3.2 0.00 0.00 0.00 54 1014.1
20260501211032 19 245 0.0 0.0 0.00 0.00 0.00 56 1014.2
20260501210528 19 232 0.0 4.8 0.00 0.00 0.00 52 1014.2
20260501210025 20 216 1.6 6.4 0.00 0.00 0.00 52 1014.2
20260501205521 20 209 1.6 4.8 0.00 0.00 0.00 55 1014.3
20260501205020 20 209 1.6 4.8 0.00 0.00 0.00 53 1014.2
20260501204515 20 217 0.0 1.6 0.00 0.00 0.00 53 1014.5
20260501204011 20 265 3.2 4.8 0.00 0.00 0.00 52 1014.7